Presure
254 267 268 267 263 257 258 258 260 263 258 248 261 275 275 274 295 303 304 295 289 281 279 284 285 283 311 335 331 290 267 253 248 239 242 231 238 238 232 232 244 248 253 255
272 268 268 263 258 252 89 260 262 260 268 276 273 269 277 303 305 292 290 285 285 282 282 280 301 334 312 300 268 251 251 236 239 223 238 227 229 228 231 246 245 244 252 274
270 268 236 262 254 261 260 263 269 272 289 287 280 292 306 292 288 286 283 282 277 278 287 311 306 311 277 262 248 239 239 232 238 225 229 229 236 233 239 238 237 239 238 238
282 282 152 274 268 262 288 276 296 290 292 288 302 291 281 283 279 280 272 276 280 303 291 298 296 264 249 249 236 233 237 223 228 225 228 229 235 235 232 224 229 234 232 235
294 302 300 287 282 284 293 282 286 283 292 296 286 287 281 273 270 270 273 293 292 313 321 322 262 249 232 240 223 233 227 226 227 226 231 230 230 228 228 226 236 231 226 237
294 300 298 281 278 289 286 275 281 289 290 289 278 276 275 273 275 285 304 292 279 268 260 252 241 240 228 230 229 225 228 226 223 229 233 233 226 226 226 224 229 236 240 229
295 297 291 278 286 243 279 279 285 285 278 268 266 274 280 273 295 306 284 277 261 245 242 237 230 219 237 231 220 226 227 223 222 235 231 228 226 226 224 225 222 230 234 233
291 290 280 284 281 289 281 282 280 271 267 272 265 274 275 287 311 279 273 257 241 241 229 223 227 236 231 223 226 223 221 224 227 232 230 227 223 227 220 224 225 234 233 240
291 283 286 274 280 282 279 270 276 270 269 267 272 273 270 293 265 275 253 239 235 231 225 225 234 228 225 229 222 220 222 220 224 231 234 227 222 226 223 228 219 234 234 230
292 282 296 280 279 275 276 263 271 265 268 275 269 269 283 262 261 262 247 238 229 226 227 221 222 223 226 226 222 219 221 222 224 224 226 226 224 224 226 228 222 225 242 238
274 289 275 271 266 268 271 273 269 258 276 266 266 264 280 255 264 253 239 235 224 234 226 218 227 226 220 221 229 223 218 218 226 226 218 217 226 223 224 225 223 230 241 236
287 282 270 273 268 268 270 266 259 270 265 259 263 273 270 247 254 254 242 236 225 226 231 231 222 223 218 218 227 221 221 217 223 227 221 219 225 218 224 222 223 232 240 237
272 267 267 267 269 268 255 257 270 276 269 263 264 275 258 248 255 249 237 226 234 216 219 224 224 229 222 217 224 223 218 217 222 226 223 225 223 219 223 228 225 229 237 237
268 267 259 264 261 256 261 271 259 267 257 257 252 276 248 255 253 240 236 225 223 215 226 216 224 217 217 225 222 224 221 215 220 225 227 227 226 222 222 223 226 237 231 236
260 256 259 263 259 269 257 261 267 250 250 264 247 286 246 250 248 239 230 229 225 225 220 221 217 224 227 228 220 226 223 216 217 225 229 228 221 217 228 225 228 230 231 239
261 264 260 260 262 268 270 256 261 251 250 265 279 279 247 248 247 237 231 228 226 222 225 224 231 224 225 229 224 227 222 220 224 229 229 225 218 228 230 226 233 232 240 240
257 260 260 264 268 259 264 252 262 252 268 256 277 268 246 248 242 231 231 227 226 225 221 225 226 230 223 229 225 228 225 226 229 224 217 218 229 228 219 230 232 238 238 240
257 264 266 268 258 258 273 270 261 253 264 238 245 277 249 241 253 242 231 230 230 225 232 224 233 231 234 237 219 226 228 227 232 228 225 217 226 223 228 231 236 237 240 249
265 267 269 258 262 265 261 255 262 257 259 263 265 263 265 250 237 242 239 240 241 229 231 228 232 242 229 224 228 223 233 227 223 225 219 233 226 229 236 231 238 239 248 278
270 271 263 262 263 265 258 251 246 247 249 256 255 249 261 256 243 230 229 235 236 229 229 231 233 229 229 226 217 226 219 228 225 229 232 223 231 230 229 238 239 250 261 276
269 280 260 266 263 250 248 240 241 252 260 255 260 258 250 246 248 247 236 227 228 232 229 229 234 228 215 213 215 221 223 225 230 227 227 229 235 230 239 239 257 291 275 330
269 282 258 267 256 249 243 249 252 252 254 252 232 237 236 229 227 225 229 228 232 230 231 220 213 217 223 220 217 219 228 234 228 228 233 240 237 235 239 266 293 272 329 319
275 279 252 263 250 245 246 242 241 240 242 240 236 233 227 228 235 237 233 230 229 215 204 236 219 225 220 221 224 231 227 229 232 235 247 240 226 241 285 292 268 327 317 316
284 265 252 264 251 239 238 236 240 236 233 226 227 233 240 232 229 236 232 219 233 231 221 229 229 225 224 232 231 227 227 234 243 241 241 238 270 293 280 291 327 313 315 319
281 260 252 266 251 244 244 240 233 236 236 233 237 229 232 237 235 226 230 227 225 225 226 228 228 229 232 232 227 230 237 238 240 253 265 287 287 265 324 323 310 330 315 304
274 259 259 264 258 245 242 239 239 237 238 242 236 235 235 233 230 229 222 227 231 229 230 234 236 236 229 228 232 236 241 248 265 282 288 267 298 324 318 309 328 314 302 295
263 260 260 264 258 249 237 243 237 235 240 239 236 234 229 230 231 233 238 234 230 236 238 237 234 230 230 234 240 248 265 282 283 268 268 329 318 315 313 323 309 298 296 313
Wind_Speed
90 84 80 76 73 73 71 73 73 56 61 62 67 66 61 61 59 54 47 44 41 42 45 46 45 42 40 25 19 13 13 15 16 23 21 30 28 30 33 35 37 38 38 39
78 78 76 72 71 70 24 72 71 63 54 65 60 59 57 53 44 42 39 37 38 40 41 41 38 24 21 14 12 13 14 23 19 32 22 29 30 33 34 30 29 31 33 37
76 76 64 68 67 74 72 70 68 64 54 53 51 51 42 39 37 35 36 36 35 36 36 27 19 16 18 16 14 16 18 23 19 29 26 29 28 30 28 28 30 33 34 36
74 72 39 63 69 72 67 62 56 50 49 46 41 36 34 33 35 34 33 34 33 31 29 22 16 21 16 17 19 21 18 28 23 27 28 28 26 27 27 32 32 33 35 38
70 58 50 49 60 58 51 49 48 43 42 37 33 32 30 30 33 32 32 30 23 18 13 15 24 20 20 19 24 18 22 23 24 26 26 27 25 27 29 33 34 33 36 40
54 50 44 45 54 46 41 45 42 37 33 29 29 29 30 30 30 29 24 19 18 17 19 19 19 20 21 21 20 21 22 23 26 26 26 26 27 29 31 34 34 39 42 38
46 43 37 43 45 36 38 36 36 31 25 27 29 29 28 27 23 21 23 24 22 16 18 17 18 24 18 20 23 22 22 24 27 25 27 28 28 31 33 37 36 40 42 42
39 36 31 38 39 35 33 33 30 24 26 28 30 27 25 23 17 23 27 24 19 20 20 22 20 20 22 22 21 23 25 26 27 27 30 30 30 35 34 38 40 46 46 50
34 32 32 35 34 32 31 28 26 25 27 30 29 25 24 18 23 26 25 21 21 22 24 23 19 22 22 21 23 26 27 29 30 30 33 33 34 37 38 42 40 50 51 49
31 28 29 30 28 29 28 23 23 23 25 24 25 25 22 26 25 29 26 26 25 25 26 28 25 23 20 22 26 29 29 30 31 33 34 36 38 40 42 44 43 48 58 56
24 30 28 28 26 26 26 20 18 21 21 23 22 26 25 28 26 31 29 30 28 27 28 29 25 24 24 25 26 29 31 33 33 36 37 37 42 43 45 47 48 56 60 59
26 28 24 24 24 24 23 19 21 19 23 26 26 27 30 30 29 34 32 32 30 28 26 27 30 27 30 30 27 31 34 35 37 39 40 41 44 44 48 49 51 61 64 62
25 18 22 24 22 18 20 23 19 15 23 27 29 30 32 31 33 33 32 32 31 34 33 29 28 27 30 32 33 34 37 37 40 42 43 46 46 47 51 56 57 63 67 68
18 19 24 23 19 20 22 25 25 21 25 26 29 30 34 32 34 34 35 33 33 34 32 31 30 31 34 36 36 39 40 40 42 45 47 49 50 51 54 57 61 70 67 70
20 22 26 23 22 20 26 27 27 29 26 26 31 29 35 35 35 36 36 36 35 34 34 34 34 38 38 39 40 42 42 44 45 48 51 52 51 52 61 62 67 71 70 74
22 23 23 22 19 20 22 28 26 28 26 25 25 30 37 37 38 38 37 37 38 37 38 38 40 40 41 41 43 43 44 47 49 52 53 53 54 61 64 66 72 73 77 78
19 23 26 25 20 25 25 26 25 24 25 29 26 34 37 39 41 37 37 39 39 39 38 41 42 43 43 44 43 44 46 49 51 51 52 55 61 64 63 72 74 77 78 81
24 24 25 22 24 24 23 22 24 29 28 34 33 32 39 40 38 42 39 40 42 41 44 43 44 44 44 42 43 46 49 50 52 53 56 58 64 66 71 74 78 79 82 88
23 24 25 25 24 24 24 25 24 28 28 28 29 33 39 39 36 35 36 39 42 40 41 43 44 43 41 43 46 45 51 50 53 57 59 65 67 71 75 76 79 82 88 92
24 24 27 26 26 25 24 24 27 28 29 31 33 31 33 36 34 35 36 35 35 38 41 42 43 42 43 43 44 48 51 54 57 61 63 66 71 74 75 79 82 88 91 91
24 25 28 27 28 25 26 27 29 32 30 31 31 31 31 33 36 36 34 35 37 40 40 41 42 41 43 47 49 53 56 59 61 64 67 70 75 76 80 82 91 94 90 75
26 27 29 29 29 29 30 29 27 25 25 25 27 24 26 28 31 34 36 37 39 39 40 40 44 47 49 51 54 57 60 62 65 68 72 77 78 78 84 93 92 88 74 73
28 29 30 30 34 33 32 31 30 27 25 27 29 30 32 34 35 36 37 38 39 43 47 43 51 51 54 56 59 61 63 66 70 74 80 79 71 85 95 90 88 73 73 71
30 33 32 33 37 36 35 34 33 32 33 34 35 36 35 36 38 37 38 42 41 42 49 49 51 55 58 60 62 64 67 72 77 78 81 81 93 92 88 84 71 72 71 66
31 34 34 35 40 39 38 38 38 37 37 38 37 39 39 38 40 42 42 44 48 50 52 53 56 58 60 63 65 69 73 76 80 88 92 93 89 87 75 70 71 66 65 67
35 36 36 37 39 41 41 41 41 39 39 39 40 41 42 43 45 47 50 51 51 53 54 56 58 61 63 66 70 74 79 85 92 92 89 86 81 71 70 71 65 64 67 69
39 38 38 39 42 43 41 43 42 42 41 42 43 44 45 46 48 49 50 52 54 56 58 60 62 64 67 72 77 83 90 89 88 86 88 70 71 70 70 64 65 67 69 67
Wind_Direction
283 282 282 284 285 285 285 283 285 286 290 285 279 279 279 279 278 278 280 283 280 276 276 276 277 281 280 263 264 213 228 245 248 261 266 271 283 288 289 297 300 302 304 303
277 279 279 281 282 280 309 281 285 285 286 275 279 279 282 281 277 279 276 273 274 271 272 276 280 258 257 197 201 230 225 257 258 275 280 280 289 292 300 303 308 309 316 320
276 276 276 279 276 276 277 280 282 284 281 277 278 280 275 278 275 273 272 271 273 275 277 269 253 241 188 187 216 231 241 258 269 273 284 289 295 297 304 309 314 316 314 314
274 272 274 274 272 275 275 278 278 278 280 281 280 279 276 272 270 268 269 273 275 269 265 254 212 184 198 196 232 245 251 266 271 278 287 292 296 301 305 304 312 316 312 317
270 267 266 264 265 270 276 275 275 278 279 280 280 275 267 262 264 266 268 266 260 263 253 204 174 190 237 212 257 244 257 268 276 283 289 291 298 303 307 307 318 314 310 324
262 260 259 259 263 271 272 270 276 277 280 275 266 265 265 263 263 262 247 228 194 182 174 178 193 207 232 249 245 256 266 273 279 289 290 295 300 303 304 303 313 323 325 317
256 257 257 257 262 266 266 269 271 276 267 261 262 264 266 262 258 242 221 197 190 205 199 208 230 260 235 244 255 263 271 277 284 292 293 299 302 304 303 305 305 320 324 323
253 254 251 254 259 262 264 264 269 264 259 255 259 260 260 258 248 218 204 194 206 205 229 247 245 235 244 258 262 269 276 284 292 297 297 299 301 308 301 309 312 323 323 325
247 250 246 249 254 258 259 265 264 256 254 252 253 254 245 243 223 213 206 211 213 216 239 241 241 246 256 261 266 272 279 284 293 301 299 302 305 309 309 315 308 322 322 322
241 246 245 246 248 254 257 258 251 253 256 255 249 242 236 218 218 211 206 212 223 229 236 247 250 250 256 262 266 271 279 287 294 298 302 305 306 307 311 315 312 317 320 319
233 237 232 241 245 250 257 254 245 244 258 242 240 238 225 223 217 213 210 217 234 230 237 253 252 253 258 266 275 277 282 288 297 298 297 303 307 308 311 313 313 318 318 317
219 228 236 239 241 246 248 243 237 238 239 237 232 234 224 230 222 218 214 223 235 237 243 249 257 262 261 268 286 280 284 289 296 298 298 303 305 304 308 310 312 317 318 317
224 234 237 241 239 239 234 240 236 248 240 235 234 231 225 229 225 227 227 234 233 247 252 255 266 274 270 276 284 284 285 290 295 298 299 303 303 303 308 313 314 315 316 318
228 217 231 235 235 224 234 236 229 230 230 236 231 232 228 227 223 229 232 244 244 256 253 263 268 270 274 281 282 284 286 291 295 299 301 303 305 306 308 311 313 314 314 316
216 224 235 236 238 238 232 234 237 231 230 241 234 233 232 228 227 231 238 243 248 253 260 264 269 276 277 279 280 284 286 291 294 299 303 305 304 305 311 311 311 311 313 316
224 229 239 243 239 245 234 235 240 233 235 240 243 228 232 231 231 234 240 246 251 258 263 267 272 274 276 277 280 284 288 290 296 302 305 304 303 309 310 309 310 311 314 315
229 232 235 240 231 233 233 236 240 242 239 236 240 226 232 233 235 243 246 250 256 258 265 270 272 274 276 279 286 289 292 296 300 301 299 301 308 308 307 308 309 313 314 315
231 236 238 233 232 238 244 236 234 235 237 242 238 234 233 240 239 241 249 252 256 263 266 269 273 275 279 283 290 294 297 300 302 303 303 302 306 306 306 307 311 313 313 315
234 238 235 235 239 236 234 234 235 241 243 243 240 241 237 241 247 247 249 254 257 261 266 271 277 283 285 289 294 296 299 298 299 301 301 304 304 304 307 309 311 312 313 315
243 242 233 234 234 228 229 233 244 250 252 249 250 255 245 245 254 251 255 262 265 268 273 279 284 288 291 292 290 293 293 298 299 302 302 302 303 305 308 309 310 312 313 314
246 247 232 230 228 225 230 243 251 247 247 249 248 246 251 255 257 258 261 266 270 274 279 284 286 287 284 286 289 292 295 298 299 300 300 302 305 307 308 310 311 314 314 313
244 241 231 230 225 225 234 236 239 242 245 247 246 247 251 255 260 264 267 271 275 278 279 279 281 282 283 285 289 293 297 299 299 300 303 305 306 308 309 311 313 313 312 312
244 230 231 228 223 228 230 235 236 237 240 244 248 251 256 260 264 266 268 272 274 275 285 283 280 283 285 289 293 296 297 300 301 303 306 305 306 308 311 312 312 312 312 312
242 226 234 232 223 234 236 241 239 243 247 253 255 257 257 260 263 266 267 269 275 277 277 281 283 285 288 293 294 296 299 302 305 305 304 306 310 311 311 311 311 311 311 311
238 231 236 234 228 233 237 241 250 251 253 255 255 259 262 265 265 268 270 272 274 277 280 283 286 289 291 293 296 299 302 304 304 306 308 310 310 310 311 310 310 311 311 311
236 235 237 235 232 237 241 245 248 253 257 259 261 264 265 266 267 269 274 275 278 281 284 288 290 292 294 297 299 302 303 304 306 308 309 310 310 310 310 310 311 310 311 311
238 240 240 238 236 239 249 249 253 258 258 259 262 265 269 270 273 276 280 281 282 287 290 292 293 294 297 299 301 303 306 307 308 309 310 310 310 311 311 311 311 311 312 311